Location: Franzen
(48.6167°N, 15.3833°E)
Time: 09:43:09
(UTC+00:00)

A-11 Canister half - Pass Details

Date: 29 July 2021
Orbit: 1515 x 1685 km, 47.2° (Epoch: 21 September)

Event Time Altitude Azimuth Distance (km) Brightness Sun altitude
Rises 22:08:31 0° 288° (WNW) 4,915 12.1 -21.7°
Reaches altitude 10° 22:11:44 10° 284° (WNW) 3,938 11.5 -21.8°
Maximum altitude 22:21:27 54° 211° (SSW) 1,986 9.2 -22.2°
Enters shadow 22:26:17 32° 153° (SSE) 2,611 9.6 -22.3°
Drops below altitude 10° 22:31:09 10° 138° (SE) 3,925 - -22.4°
Sets 22:34:23 0° 134° (SE) 4,898 - -22.5°
